SCP
0 0 0 0 0 0 0 0 0 0 0 0 0 0 0 0 0 0 0 0 0 0 0 0 0 0 0 0 0 0 0 0 0 0 0 0 0 0 0 0 0 0 0 0
0 0 0 0 0 0 0 0 0 0 0 0 0 0 0 0 0 0 0 0 0 0 0 0 0 0 0 0 0 0 0 0 0 0 0 0 0 0 0 0 0 0 0 0
0 0 0 0 0 0 0 0 0 0 0 0 0 0 0 0 0 0 0 0 0 0 0 0 0 0 0 0 0 0 0 0 0 0 0 0 0 0 0 0 0 0 0 0
0 0 0 0 0 0 0 0 0 0 0 0 0 0 0 0 0 0 0 0 0 0 0 0 0 0 0 0 0 0 0 0 0 0 0 0 0 0 0 0 0 0 0 0
0 0 0 0 0 0 0 0 0 0 0 0 0 0 0 0 0 0 0 0 0 0 0 0 0 0 0 0 0 0 0 0 0 0 0 0 0 0 0 0 0 0 0 0
0 0 0 0 0 0 0 0 0 0 0 0 0 0 0 0 0 0 0 0 0 0 0 0 0 0 0 0 0 0 0 0 0 0 0 0 0 0 0 0 0 0 0 0
0 0 0 0 0 0 0 0 0 0 0 0 0 0 0 0 0 0 0 0 0 0 0 0 0 0 0 0 0 0 0 0 0 0 0 0 0 0 0 0 0 0 0 0
0 0 0 0 0 0 0 0 0 0 0 0 0 0 0 0 0 0 0 0 0 0 0 0 0 0 0 0 0 0 0 0 0 0 0 0 0 0 0 0 0 0 0 0
0 0 0 0 0 0 0 0 0 0 0 0 0 0 0 0 0 0 0 0 0 0 0 0 0 0 0 0 0 0 0 0 0 0 0 0 0 0 0 0 0 0 0 0
0 0 0 0 0 0 0 0 0 0 0 0 0 0 0 0 0 0 0 0 0 0 0 0 0 0 0 0 0 0 0 0 0 0 0 0 0 0 0 0 0 0 0 0
0 0 0 0 0 0 0 0 0 0 0 0 0 0 0 0 0 0 0 0 0 0 0 0 0 0 0 0 0 0 0 0 0 0 0 0 0 0 0 0 0 0 0 0
0 0 0 0 0 0 0 0 0 0 0 0 0 0 0 0 0 0 0 0 0 0 0 0 0 0 0 0 0 0 0 0 0 0 0 0 0 0 0 0 0 0 0 0
0 0 0 0 0 0 0 0 0 0 0 0 0 0 0 0 0 0 0 0 0 0 0 0 0 0 0 0 0 0 0 0 0 0 0 0 0 0 0 0 0 0 0 0
0 0 0 0 0 0 0 0 0 0 0 0 0 0 0 0 0 0 0 0 0 0 0 0 0 0 0 0 0 0 0 0 0 0 0 0 0 0 0 0 0 0 0 0
0 0 0 0 0 0 0 0 0 0 0 0 0 0 0 0 0 0 0 0 0 0 0 0 0 0 0 0 0 0 0 0 0 0 0 0 0 0 0 0 0 0 0 0
0 0 0 0 0 0 0 0 0 0 0 0 0 0 0 0 0 0 0 0 0 0 0 0 0 0 0 0 0 0 0 0 0 0 0 0 0 0 0 0 0 0 0 0
0 0 0 0 0 0 0 0 0 0 0 0 0 0 0 0 0 0 -0 -0 0 0 0 0 0 0 0 0 0 0 0 0 0 0 0 0 0 0 0 0 0 0 0 0
0 0 0 0 0 0 0 0 0 0 0 0 0 0 0 0 0 0 0 0 0 0 0 0 0 0 0 0 0 0 0 0 0 0 0 0 0 0 0 0 0 0 0 0
0 0 0 0 0 0 0 0 0 0 0 0 0 0 0 0 0 0 0 0 0 0 0 0 0 0 0 0 0 0 0 0 0 0 0 0 0 0 0 0 0 0 0 0
0 0 0 0 0 0 0 0 0 0 0 0 0 0 0 0 0 0 0 0 0 0 0 0 0 0 0 0 0 0 0 0 0 0 0 0 0 0 0 0 0 0 0 0
0 0 0 0 0 0 0 0 0 0 0 0 0 0 0 0 0 0 0 0 0 0 0 0 0 0 0 0 0 0 0 0 0 0 0 0 0 0 0 0 0 0 0 0
0 0 0 0 0 0 0 0 -0 0 0 0 0 0 0 0 0 0 0 0 0 0 0 0 0 0 0 0 0 0 0 0 0 0 0 0 0 0 0 0 0 0 0 0
0 0 0 0 0 0 0 0 -0 -0 0 0 0 0 0 0 0 0 0 0 0 0 0 0 0 0 0 0 0 0 0 0 0 0 0 0 0 0 0 0 0 0 0 0
0 0 0 0 0 0 0 0 -0 -0 0 0 0 0 0 0 0 0 0 0 0 0 0 0 0 0 0 0 0 0 0 0 0 0 0 0 0 0 0 0 0 0 0 0
0 0 0 0 0 0 0 0 -0 0 0 0 0 0 0 0 0 0 0 0 0 0 0 0 0 0 0 0 0 0 0 0 0 0 0 0 0 0 0 0 0 0 0 0
0 0 0 0 0 0 0 0 0 0 0 0 0 0 0 0 0 0 0 0 0 0 0 0 0 0 0 0 0 0 0 0 0 0 0 0 0 0 0 0 0 0 0 0
Wind_Speed
1 2 4 8 8 6 3 3 6 6 3 4 7 10 9 5 3 4 4 3 3 3 2 1 0 1 2 2 1 0 1 1 1 1 1 1 1 1 0 0 0 1 1 1
2 4 6 3 3 4 4 5 6 5 2 3 5 9 7 4 4 5 5 4 4 2 1 1 1 2 1 1 1 0 1 1 1 1 1 1 1 1 1 0 0 0 0 0
5 4 2 2 2 4 6 7 6 5 4 2 3 7 5 3 2 2 2 3 2 2 2 1 0 0 1 1 1 1 1 1 1 1 1 1 1 1 1 0 0 1 1 0
3 4 2 2 4 4 7 5 4 4 2 4 2 5 6 4 3 4 3 2 2 2 2 1 1 1 1 1 1 1 1 1 1 2 2 3 2 2 1 1 1 1 1 1
4 2 2 4 5 4 5 3 4 4 3 4 3 4 8 2 4 4 4 3 2 1 1 1 1 1 1 1 1 1 1 1 0 1 2 3 2 1 0 0 0 1 1 1
4 2 1 2 3 2 1 2 2 1 1 5 7 6 7 4 5 2 1 2 2 1 1 1 1 0 1 1 1 1 1 1 1 0 1 2 2 1 1 1 1 1 1 1
4 3 2 1 2 2 1 2 2 3 2 7 3 5 8 4 3 3 3 3 2 1 1 0 1 1 1 1 1 1 1 1 1 1 0 1 2 2 3 2 2 1 1 2
2 5 3 2 2 3 3 4 5 4 5 5 1 6 6 2 3 2 1 1 1 1 1 1 1 1 1 1 1 1 1 1 1 1 1 1 0 1 1 2 2 2 2 3
3 5 3 2 1 2 2 4 3 3 2 3 4 5 5 2 3 3 1 0 1 2 2 2 1 1 1 1 1 2 1 1 1 1 1 1 1 1 1 1 1 2 2 2
3 4 5 3 2 1 2 2 2 3 3 5 4 4 4 3 4 3 2 2 3 2 1 1 1 1 1 2 1 1 1 1 1 1 1 1 1 1 1 1 1 1 2 2
0 2 4 2 3 4 1 1 2 2 3 5 4 6 4 3 2 3 4 3 2 2 2 1 1 1 1 1 1 1 1 1 0 0 1 1 1 1 1 1 2 2 2 1
0 2 4 6 4 2 4 4 5 4 5 4 4 7 2 1 1 2 3 2 2 2 1 1 1 1 1 1 2 1 1 1 1 1 1 1 1 1 1 2 3 2 2 1
1 2 2 5 3 2 2 2 3 3 2 3 5 8 2 2 3 3 3 3 3 3 2 2 2 1 1 1 1 1 2 2 2 1 1 1 1 1 2 2 3 3 3 2
1 2 5 7 5 2 4 4 2 3 4 6 8 9 5 4 5 5 4 3 3 3 3 3 3 3 2 2 2 1 1 1 2 1 1 1 2 2 2 2 2 3 3 2
2 4 5 7 6 4 4 5 5 7 8 8 8 8 9 5 4 4 3 3 4 4 5 5 4 3 3 3 2 2 2 1 1 1 1 2 2 2 2 2 3 3 3 3
2 3 3 7 5 4 6 6 7 8 8 9 9 11 7 4 2 2 3 3 3 4 5 5 5 4 4 3 3 2 2 2 1 1 1 2 2 2 2 3 3 3 3 3
3 3 2 5 4 3 7 7 7 5 4 5 9 10 5 4 4 4 3 3 3 4 4 4 4 4 4 3 3 2 2 2 2 2 2 2 2 2 3 3 3 3 3 3
4 3 2 1 1 7 7 1 4 6 6 6 6 6 5 6 6 3 2 2 4 4 4 4 4 4 4 3 2 2 2 2 2 2 3 3 3 3 3 3 3 3 3 3
5 5 3 2 4 8 6 3 2 5 6 5 8 9 7 4 4 3 2 2 3 3 3 3 3 3 3 3 2 2 2 2 2 3 3 3 3 3 3 3 3 3 3 3
1 3 4 3 4 8 6 2 1 1 6 3 4 7 5 2 3 5 3 2 2 2 3 3 2 2 3 3 3 2 2 2 3 4 4 4 3 3 3 3 3 3 3 3
2 2 4 5 6 9 6 3 1 4 5 3 2 3 3 4 5 3 3 3 3 3 3 2 2 2 2 3 3 2 2 3 4 5 4 4 3 3 3 3 3 3 2 3
8 6 6 5 6 10 3 3 5 5 2 2 2 2 2 3 3 3 3 3 3 3 3 2 2 2 3 3 2 2 3 4 5 4 4 4 4 3 3 2 3 3 2 2
7 8 6 8 8 2 3 5 3 1 2 3 3 3 2 3 4 3 3 3 3 3 3 2 2 3 3 3 2 3 4 4 4 4 4 4 4 3 3 2 3 2 2 2
4 2 3 5 7 4 4 3 2 1 2 3 3 3 2 3 4 4 4 3 3 3 3 2 2 2 3 3 3 3 4 4 3 3 4 3 3 3 3 2 2 2 2 2
5 3 3 6 6 4 4 3 3 3 3 3 4 3 2 2 4 4 4 4 3 3 3 3 2 3 4 4 3 4 4 3 3 3 3 3 3 2 3 3 2 3 2 2
4 5 6 7 4 4 4 3 2 3 4 4 4 4 3 3 4 4 4 4 3 3 4 3 3 4 4 4 4 4 3 3 3 3 3 3 2 2 2 3 3 5 4 5
Wind_Direction
74 101 216 219 215 225 222 229 256 258 238 211 232 252 268 267 245 253 248 231 232 238 252 236 135 61 52 37 43 117 142 144 133 137 157 165 180 181 165 184 185 182 169 158
53 249 246 239 218 228 237 257 266 280 256 233 254 268 274 265 238 234 231 233 237 257 305 331 38 52 50 32 3 5 179 173 176 177 192 200 181 194 192 315 23 28 351 206
200 246 240 210 235 236 244 234 245 259 310 292 289 293 277 272 241 255 234 221 225 218 224 246 348 10 14 332 302 312 273 207 191 165 123 79 68 67 75 316 299 321 300 245
252 277 279 257 252 225 256 245 242 253 265 275 228 279 281 267 284 265 249 241 235 236 217 223 237 287 271 281 297 295 284 242 207 171 163 162 175 196 219 220 258 303 304 303
262 282 266 250 259 229 241 250 244 244 228 270 247 231 280 287 272 262 246 241 247 236 203 222 230 232 265 309 327 321 344 321 279 189 180 182 195 214 198 161 217 277 292 303
272 281 262 258 293 234 246 337 318 314 139 256 231 207 274 252 244 265 262 245 247 235 220 257 279 312 331 349 11 3 18 5 358 334 183 186 193 191 178 204 228 257 291 301
316 296 298 353 354 340 19 90 2 328 277 249 208 202 249 253 256 244 242 239 237 210 201 288 330 333 309 322 344 355 22 3 359 344 282 216 205 193 197 208 217 235 259 273
270 287 262 251 215 221 233 181 180 214 239 273 255 226 249 254 277 285 244 215 222 230 223 236 243 236 240 264 286 300 294 321 335 299 296 298 279 208 218 222 223 225 237 250
212 263 310 296 299 173 195 225 218 191 261 273 260 268 289 268 303 325 338 328 246 248 244 244 257 258 250 248 255 244 244 279 295 286 314 325 332 321 268 247 236 237 250 259
176 264 294 308 328 305 222 185 124 165 204 252 271 253 252 286 292 298 292 273 278 284 283 280 263 252 252 252 261 257 239 241 280 277 280 310 329 330 332 319 285 275 261 263
168 212 295 323 214 225 202 194 185 191 200 203 251 261 227 218 248 270 272 271 265 266 257 260 278 274 278 321 306 274 251 259 299 290 319 344 342 341 337 316 296 284 284 266
220 162 262 256 243 215 196 198 178 192 238 230 231 258 281 245 318 322 310 312 316 316 308 313 329 2 12 0 351 331 318 316 329 339 355 335 342 340 325 312 310 309 294 281
148 137 322 324 318 344 269 255 223 205 194 218 223 255 325 360 350 345 341 331 330 339 341 341 346 345 328 316 320 324 334 334 348 6 360 348 340 328 311 312 317 322 313 303
107 175 203 228 249 241 263 277 239 189 214 235 236 254 291 316 323 328 333 324 333 345 347 346 342 330 331 327 317 318 327 342 348 351 348 327 312 309 307 313 318 319 314 305
130 219 240 259 265 253 256 267 235 220 225 228 247 254 270 282 281 294 319 335 346 338 336 334 331 326 332 340 334 332 329 342 350 352 329 310 321 327 327 329 328 324 320 311
161 217 249 269 271 266 274 274 248 240 239 240 256 264 271 285 297 308 311 319 311 308 312 319 326 331 329 326 322 328 326 334 354 335 310 322 334 333 328 331 330 328 324 320
182 177 199 263 301 326 270 243 222 219 218 209 234 252 281 294 279 265 263 273 281 289 301 306 308 307 311 309 308 296 307 339 351 339 337 341 336 327 325 327 330 323 316 316
185 186 196 247 29 243 242 193 193 201 226 220 236 264 266 261 269 253 236 254 282 293 297 296 299 306 310 319 326 327 358 8 357 348 338 336 330 319 322 322 318 316 317 311
199 180 173 176 239 269 284 255 192 212 255 236 243 264 282 310 325 282 291 287 271 279 290 291 297 300 321 340 346 3 15 13 358 337 326 321 311 307 315 312 311 313 313 311
165 165 167 180 214 243 250 269 294 157 260 263 244 260 277 326 277 274 315 316 314 329 329 331 343 354 356 354 7 24 9 4 340 324 318 318 315 309 307 306 311 314 311 309
164 192 201 209 233 256 258 267 129 186 256 327 293 264 249 225 247 290 333 340 340 336 334 348 5 5 354 355 10 10 357 331 321 325 324 324 320 309 308 318 323 323 322 322
180 184 201 186 222 250 229 143 185 224 306 320 312 292 266 268 289 306 319 327 335 336 340 352 357 347 351 359 359 341 323 323 330 329 327 323 322 320 322 326 326 332 330 323
202 197 194 200 219 235 173 190 218 253 276 293 297 298 279 277 286 299 302 301 310 318 326 338 338 330 341 354 348 310 312 327 327 325 323 323 326 326 326 320 320 329 328 313
237 219 209 245 255 252 242 246 271 265 264 287 286 283 278 275 282 291 290 296 305 314 319 324 320 312 318 330 324 299 309 320 314 308 311 318 321 323 328 320 312 300 296 296
223 195 220 250 269 291 266 249 262 275 282 286 287 283 273 270 278 278 285 294 299 307 313 308 292 287 295 309 308 307 309 311 304 302 305 310 309 307 312 310 299 290 282 271
199 190 202 234 232 231 257 269 268 267 278 279 281 290 295 274 271 280 283 290 294 296 304 303 297 292 294 300 297 299 294 283 277 289 295 293 294 295 296 302 315 325 320 325